Regional Weather Roundup
Issued by NWS

Home | Current Version | Previous Version | Text Only | Print | Product List | Glossary On
Versions: 1 2 3 4 5 6 7 8 9 10 11 12 13 14 15 16 17 18 19 20 21 22 23 24 25 26 27 28 29 30 31 32 33 34 35 36 37 38 39 40 41 42 43 44
000
ASUS42 KFFC 270603
RWRGA
WEATHER ROUNDUP FOR GEORGIA
NATIONAL WEATHER SERVICE PEACHTREE CITY GA
100 AM EST SAT DEC 27 2014

NOTE: "FAIR" INDICATES FEW OR NO CLOUDS BELOW 12,000 FEET WITH NO
SIGNIFICANT WEATHER AND/OR OBSTRUCTIONS TO VISIBILITY.

* = USE WITH CAUTION. THE STATIONS MARKED WITH AN ASTERISK MAY NOT
REPORT WEATHER SUCH AS PRECIPITATION, FOG, OR THUNDER AND ARE NOT
QUALITY CONTROLLED BY NWS.

THE REMARK "TC" DENOTES TEMPERATURE READING IN DEGREES CELSIUS.

GAZ001>058-270700-
NORTH GEORGIA

CITY           SKY/WX    TMP DP  RH WIND       PRES   REMARKS
ATLANTA        PTCLDY    43  35  73 CALM      30.27F
6HR MIN TEMP:  43; 6HR MAX TEMP:  51;

ATHENS         CLEAR     35  34  96 CALM      30.29S
6HR MIN TEMP:  35; 6HR MAX TEMP:  46;

CHAMBLEE       CLEAR     35  32  88 CALM      30.27F
6HR MIN TEMP:  34; 6HR MAX TEMP:  43;

PEACHTREE CITY CLEAR     33  31  92 CALM      30.28F
6HR MIN TEMP:  33; 6HR MAX TEMP:  44;

ROME           MOCLDY    37  36  96 CALM      30.28R
6HR MIN TEMP:  36; 6HR MAX TEMP:  46;

WEST ATLANTA   CLEAR     36  33  89 CALM      30.28S
6HR MIN TEMP:  34; 6HR MAX TEMP:  45;

GAINESVILLE    CLEAR     40  33  76 N3        30.30F
6HR MIN TEMP:  39; 6HR MAX TEMP:  50;

CARTERSVILLE   CLEAR     34  31  88 CALM      30.28S
6HR MIN TEMP:  32; 6HR MAX TEMP:  42;



CITY           SKY/WX    TMP DP  RH WIND       PRES   REMARKS
DALTON*        PTCLDY    36  36 100 CALM      30.27F
$$

GAZ059>098-102>109-270700-
CENTRAL GEORGIA

CITY           SKY/WX    TMP DP  RH WIND       PRES   REMARKS
AUGUSTA-BUSH   CLEAR     33  32  96 CALM      30.30F FOG
6HR MIN TEMP:  32; 6HR MAX TEMP:  43;

AUGUSTA-DANIEL CLEAR     45  38  76 CALM      30.29F
6HR MIN TEMP:  44; 6HR MAX TEMP:  54;

COLUMBUS       CLEAR     41  37  86 CALM      30.27F
6HR MIN TEMP:  41; 6HR MAX TEMP:  51;

MACON          CLEAR     35  35 100 W5        30.29S WCI  31
6HR MIN TEMP:  33; 6HR MAX TEMP:  47;



CITY           SKY/WX    TMP DP  RH WIND       PRES   REMARKS
LAGRANGE*      CLEAR     37  37  97 CALM      30.27F
SYLVANIA*      CLEAR     38  38 100 CALM      30.30F
MILLEDGEVILLE* FOG       37  37 100 CALM      30.29S VSB 1/2
$$

GAZ099>101-110>166-270700-
SOUTH GEORGIA

CITY           SKY/WX    TMP DP  RH WIND       PRES   REMARKS
SAVANNAH       MOCLDY    43  41  93 CALM      30.30F
6HR MIN TEMP:  43; 6HR MAX TEMP:  53;

VALDOSTA       CLEAR     44  42  93 CALM      30.27F
6HR MIN TEMP:  44; 6HR MAX TEMP:  54;

ALMA           CLEAR     41  40  96 CALM      30.28F
6HR MIN TEMP:  41; 6HR MAX TEMP:  47;

ST SIMONS      CLOUDY    56  49  77 N6        30.27F
6HR MIN TEMP:  54; 6HR MAX TEMP:  57;

ALBANY         CLEAR     42  39  89 CALM      30.29F
HUNTER AFB     CLEAR     45  45 100 NW2       30.27F FOG
BRUNSWICK      CLOUDY    52  50  93 CALM      30.28F


CITY           SKY/WX    TMP DP  RH WIND       PRES   REMARKS
BAINBRIDGE*    CLEAR     45  43  93 CALM      30.26F
MOULTRIE*      CLEAR     46  45  93 CALM      30.27F
VIDALIA*       CLEAR     43  41  93 CALM      30.29F
WAYCROSS*      CLEAR     48  47  99 CALM      30.28F
DOUGLAS*       CLEAR     50  41  71 E3        30.29F HAZE
$$


USA.gov is the U.S. government's official web portal to all federal, state and local government web resources and services.